Simultaneous Nadir Overpasses (SNOs) Predictions

Prediction of SNOs between AQUA and METOP-A Satellite Orbit:

Table of predicted SNOs for the next 14.0 days since TLE Epoch: 10/20/2017
Index Date (AQUA) Time (AQUA) Lat,Lon (AQUA) SZA (AQUA ) Date (METOP-A) Time (METOP-A) Lat,Lon (METOP-A) SZA (METOP-A ) Distance(km) Time Diff (sec)
1 10/22/2017 02:31:58 -73.95, -44.10 95.05 10/22/2017 02:30:57 -73.98, -44.09 95.02 3.66 61
2 10/22/2017 03:21:27 74.03, 123.36 85.04 10/22/2017 03:21:36 74.04, 123.38 85.05 1.41 9
3 10/22/2017 04:11:00 -74.41, -69.88 94.56 10/22/2017 04:12:10 -74.40, -68.38 94.58 44.95 70
4 10/24/2017 22:06:14 -73.95, 22.34 94.08 10/24/2017 22:05:17 -73.94, 22.23 94.08 3.58 57
5 10/24/2017 22:55:43 74.03,-170.21 86.03 10/24/2017 22:55:55 74.04,-170.20 86.04 1.44 12
6 10/24/2017 23:45:18 -74.51, -3.69 93.47 10/24/2017 23:46:26 -74.56, -1.57 93.45 63.14 68
7 10/27/2017 17:40:29 -73.95, 88.77 93.11 10/27/2017 17:39:35 -73.95, 88.65 93.11 3.64 54
8 10/27/2017 18:29:58 74.04,-103.80 87.00 10/27/2017 18:30:13 74.05,-103.78 87.00 0.71 15
9 10/27/2017 19:19:36 -74.66, 62.36 92.36 10/27/2017 19:20:42 -74.66, 65.12 92.39 81.03 66
10 10/30/2017 13:14:45 -73.96, 155.18 92.17 10/30/2017 13:13:54 -73.95, 155.07 92.18 3.58 51
11 10/30/2017 14:04:14 74.06, -37.41 87.95 10/30/2017 14:04:32 74.05, -37.37 87.93 2.22 18
12 10/30/2017 14:53:54 -74.78, 128.52 91.31 10/30/2017 14:54:59 -74.76, 131.80 91.36 95.87 65
13 11/02/2017 08:49:01 -73.98,-138.42 91.25 11/02/2017 08:48:12 -74.00,-138.40 91.23 2.53 49
14 11/02/2017 09:38:29 74.04, 29.09 88.82 11/02/2017 09:38:51 74.04, 29.03 88.83 1.93 22




NCC Satellite Simultaneous Nadir Overpasses (SNOs) Prediction Service
